Attività con fini culturali e ricreativi - Codice Fiscale 91122750689  


METAR

LIBP 221950Z VRB02KT CAVOK 26/20 Q1014

Dopo la dubbia stagione 2014 sono finalmente arrivati gli annunci per i nuovi voli estivi 2015. Si è partiti subito il 2 aprile con l'inagurazione del volo Alitalia Pescara-Roma Fiumicino che opererà 3 volte al giorno con ATR 72 Etihad (Darwin) che, si spera, non sia stagionale e continui ad offrire il collegamento feeder con Roma.

La Balkan Express ha deciso di riaprire i collegamenti estivi per i balcani siglando un accordo di 3 anni mettendo in campo collegamenti bisettimanali con Tirana - con Fokker 50 Air Vallee - e collegamenti diretti settimanali per Corfù e Mykonos operati con Boeing 737 Mistral.

È già partito il collegamento bisettimanale annunciato da tempo Pescara-Mostar con ATR 72 BH Airlines mentre è stato ritardato al 25 ottobre l'inizio del volo Pescara-Bucarest con WizzAir.

Vedi la programmazione voli

Ultimi caricamenti...


MM81824 (15-52) HH-139A Aeronautica Militare e MM81911 (11-12) Guardia Costiera AgustaWestland AW139

 


DRAGO123 (ex EAGLE23 CFS) AB412 Vigili del Fuoco

 


DRAGO123 (ex EAGLE23 CFS) AB412 Vigili del Fuoco

Questo sito non utilizza cookie di profilazione. Il sito utilizza cookie tecnici, di analisi anonima di prima parte e di terze parti per servizi di social network.